Regional Weather Roundup
Issued by NWS

Home | Current Version | Previous Version | Graphics & Text | Print | Product List | Glossary On
Versions: 1 2 3 4 5 6 7 8 9 10 11 12 13 14 15 16 17 18 19 20 21 22 23 24 25 26 27 28 29 30 31 32 33 34 35 36 37 38 39 40 41 42 43 44 45 46 47 48 49 50
000
ASUS43 KDTX 210910
RWRMI
MICHIGAN HOURLY REGIONAL WEATHER ROUNDUP
NATIONAL WEATHER SERVICE DETROIT/PONTIAC MI
400 AM EST SUN DEC 21 2014

NOTE: "FAIR" INDICATES FEW OR NO CLOUDS BELOW 12,000 FEET WITH NO
SIGNIFICANT WEATHER AND/OR OBSTRUCTION TO VISIBILITY.

MIZ047>049-052>055-059>063-066>070-074>076-081>083-211000-
SOUTHEAST LOWER MICHIGAN

CITY           SKY/WX    TMP DP  RH WIND       PRES   REMARKS
ADRIAN         CLOUDY    25  22  88 CALM      30.30R FOG
ALMA           CLOUDY    29  25  87 S5        30.27S WCI  24
ANN ARBOR      CLOUDY    25  23  92 CALM      30.29R
BAD AXE        CLEAR     15  14  96 CALM      30.28F
CARO           CLOUDY    20  18  93 CALM      30.28S
DETROIT CITY   CLOUDY    30  19  63 CALM      30.30S
DETROIT        CLOUDY    28  24  85 CALM      30.30S
FLINT          CLOUDY    26  22  84 CALM      30.28S
GROSSE ILE     CLOUDY    30  27  86 CALM      30.28S
HILLSDALE      CLOUDY    28  26  92 CALM      30.26S FOG
HOWELL         CLOUDY    26  24  93 S5        30.27S FOG     WCI  20

CITY           SKY/WX    TMP DP  RH WIND       PRES   REMARKS
JACKSON        CLOUDY    28  22  78 SW3       30.27S
LAMBERTVILLE   CLEAR     23  21  93 CALM      30.30S FOG
LANSING        CLOUDY    28  23  81 S3        30.28S
LAPEER         PTSUNNY   17  16  93 CALM      30.28S
MASON          CLOUDY    28  24  86 S3        30.27S
MONROE         MOCLDY    27  25  93 CALM      30.29S FOG
MT. CLEMENS    CLOUDY    29  21  72 W2        30.28S
PONTIAC        CLOUDY    23  21  92 CALM      30.27R
PORT HOPE        N/A     22  18  85 SW5       30.27S WCI  16
PORT HURON     MOCLDY    23  23 100 CALM      30.29F
TRI CITIES     CLOUDY    28  23  81 S5        30.28S WCI  23
TROY           PTCLDY    27  21  80 CALM      30.31R
SAGINAW HB     CLOUDY    28  27  93 S3        30.28S
$$
MIZ043>046-050>051-056>058-064>065-071>073-077>080-211000-
SOUTHWEST LOWER MICHIGAN

CITY           SKY/WX    TMP DP  RH WIND       PRES   REMARKS
BATTLE CREEK   CLOUDY    30  27  88 S3        30.27S FOG
BENTON HARBOR  CLOUDY    30  26  85 S6        30.27S WCI  24
BIG RAPIDS     CLOUDY    29  29 100 CALM      30.23S FOG
COLDWATER      CLOUDY    30  28  92 MISG      30.27S FOG
FREMONT        CLOUDY    30  29  96 SE3       30.23F FOG
HOLLAND        CLOUDY    33  27  78 S8        30.26S WCI  26
GRAND RAPIDS   CLOUDY    30  27  88 S6        30.26S FOG     WCI  24
IONIA          CLOUDY    30  27  88 S5        30.25F WCI  25
KALAMAZOO      CLOUDY    30  27  88 S5        30.27S FOG     WCI  25
LUDINGTON      CLOUDY    31  28  88 CALM      30.23F FOG
MARSHALL       CLOUDY    28  26  91 CALM      30.26F
MOUNT PLEASANT CLOUDY    28  26  89 CALM      30.26S FOG
MUSKEGON       CLOUDY    32  28  85 SE5       30.25S FOG     WCI  27
SOUTH HAVEN    CLOUDY    31  27  84 S5        30.27R WCI  27
$$
MIZ016>042-211000-
NORTHERN LOWER MICHIGAN

CITY           SKY/WX    TMP DP  RH WIND       PRES   REMARKS
ALPENA         CLEAR     18  15  88 CALM      30.27S
BEAVER ISLAND  CLOUDY    32  26  77 S5        30.22S WCI  27
BELLAIRE       CLOUDY    27  24  89 CALM      30.25S
CADILLAC       CLOUDY    27  25  93 S6        30.20S FOG     WCI  20
CHARLEVOIX     CLOUDY    27  23  82 S5        30.26S WCI  22
FRANKFORT      CLOUDY    30  27  90 CALM      30.22F
GAYLORD        CLOUDY    21  19  92 CALM      30.21S
GRAYLING       CLOUDY    21  20  95 CALM      30.23S
HARBOR SPRINGS CLOUDY    24  20  86 NE3       30.24S
HOUGHTON LAKE  CLOUDY    24  21  88 CALM      30.23F
MANISTEE       CLOUDY    28  25  86 CALM      30.24S
OSCODA         CLOUDY    12  10  92 CALM      30.27F
PELLSTON       CLOUDY    23  20  88 CALM      30.24F
ROGERS CITY    PTCLDY    17  17  98 S3        30.27S
TRAVERSE CITY  CLOUDY    29  23  78 CALM      30.23S
$$
MIZ007>008-015-211000-
EASTERN UPPER MICHIGAN

CITY           SKY/WX    TMP DP  RH WIND       PRES   REMARKS
KINROSS        CLOUDY    25  23  93 S6        30.23S WCI  18
MACKINAC ISLAN CLOUDY    28  22  76 S5        30.23F WCI  23
NEWBERRY       CLOUDY    26  24  91 S9        30.20F WCI  17
S. S. MARIE    CLOUDY    24  19  81 CALM      30.24R
MUNISING         N/A     30  23  75 S5        30.19S WCI  25
$$
MIZ004>006-011>014-085-211000-
CENTRAL UPPER MICHIGAN

CITY           SKY/WX    TMP DP  RH WIND       PRES   REMARKS
MANISTIQUE     CLOUDY    28  27  96 CALM      30.20F
ESCANABA       CLOUDY    28  23  80 CALM      30.19F
MENOMINEE      CLOUDY    28  25  86 S3        30.19F
SAWYER-GWINN   CLOUDY    26  23  91 S7        30.14F WCI  18
$$
MIZ001>003-009>011-084-211000-
WESTERN UPPER MICHIGAN

CITY           SKY/WX    TMP DP  RH WIND       PRES   REMARKS
IRON MOUNTAIN  CLOUDY    26  23  88 SE6       30.13F FOG     WCI  19
HOUGHTON       CLOUDY    28  25  88 S5        30.09F WCI  23
COPPER HARBOR    N/A     31  26  82 SW6       30.12F WCI  25
IRONWOOD       CLOUDY    30  27  86 S7        30.03F WCI  23
$$

ABBREVIATIONS USED IN REMARKS
   TC - TEMPERATURE IN CELSIUS
  WCI - WIND CHILL INDEX
   HX - HEAT INDEX
  VSB - VISIBILITY



USA.gov is the U.S. government's official web portal to all federal, state and local government web resources and services.